Andover, NJ

2:52 PM EDT on July 23, 2017 (GMT -0400)
Andover

Weather History for K12N - March, 2013

Change the Weather History Date:

Saturday, March 9, 2013

  Actual Average (KFWN) Record (KFWN)
Temperature  
Mean Temperature 44 °F -  
Max Temperature 57 °F 44 °F 78 °F (2016)
Min Temperature 30 °F 21 °F 5 °F (1960)
Degree Days  
Heating Degree Days 22    
Moisture  
Dew Point 23 °F    
Average Humidity 56    
Maximum Humidity 88    
Minimum Humidity 24    
Precipitation  
Precipitation 0.00 in - - ()
Sea Level Pressure  
Sea Level Pressure 30.29 in    
Wind  
Wind Speed 4 mph (NNE)    
Max Wind Speed 8 mph    
Max Gust Speed -    
Averages and records for this station are not official NWS values.
T = Trace of Precipitation, MM = Missing Value Source: NWS Daily Summary

Daily Weather History Graph

Daily Weather History Graph

Search for Another Location

Airport or City:

Trip Planner

Search our weather history database for the weather conditions in past years. The results will help you decide how hot, cold, wet, or windy it might be!

Date:

Astronomy

Mar. 09, 2013 Rise Set
Actual Time 6:20 AM EST 5:59 PM EST
Civil Twilight 5:52 AM EST 6:26 PM EST
Nautical Twilight 5:20 AM EST 6:58 PM EST
Astronomical Twilight 4:48 AM EST 7:30 PM EST
Moon 4:43 AM EST (3/9) 3:57 PM EST (3/9)
Length of Visible Light 12h 34m
Length of Day
11h 39m
Waning Crescent, 5% of the Moon is Illuminated
Mar 9
Waning Crescent
Mar 11
New
Mar 19
First Quarter
Mar 27
Full
Apr 3
Last Quarter

Hourly Weather History & Observations

Time (EST) Temp. Windchill Dew Point Humidity Pressure Visibility Wind Dir Wind Speed Gust Speed Precip Events Conditions
12:54 AM 33.1 °F 26.9 °F 21.0 °F 61% 30.26 in - North 6.9 mph - N/A   Unknown
1:54 AM 32.0 °F 27.5 °F 21.0 °F 64% 30.26 in - Variable 4.6 mph - N/A   Unknown
2:54 AM 30.9 °F 27.5 °F 21.0 °F 67% 30.24 in - NE 3.5 mph - N/A   Unknown
3:54 AM 30.9 °F 27.5 °F 19.9 °F 64% 30.25 in - North 3.5 mph - N/A   Unknown
4:54 AM 30.0 °F 24.1 °F 19.9 °F 66% 30.27 in - North 5.8 mph - N/A   Unknown
5:54 AM 30.0 °F 25.2 °F 19.9 °F 66% 30.29 in - North 4.6 mph - N/A   Unknown
6:54 AM 30.0 °F - 19.0 °F 64% 30.30 in - Calm Calm - N/A   Unknown
7:54 AM 34.0 °F 31.0 °F 19.9 °F 56% 30.31 in - Variable 3.5 mph - N/A   Unknown
8:54 AM 37.0 °F 31.0 °F 21.0 °F 52% 30.32 in - North 8.1 mph - N/A   Unknown
9:54 AM 39.9 °F 34.5 °F 19.9 °F 45% 30.32 in - North 8.1 mph - N/A   Unknown
10:54 AM 45.0 °F 41.8 °F 21.9 °F 40% 30.31 in - Variable 5.8 mph - N/A   Unknown
11:54 AM 48.0 °F - 21.9 °F 36% 30.30 in - NNE 4.6 mph - N/A   Unknown
12:54 PM 51.1 °F - 21.9 °F 32% 30.26 in - NE 5.8 mph - N/A   Unknown
1:54 PM 54.0 °F - 19.9 °F 26% 30.25 in - NNE 5.8 mph - N/A   Unknown
2:54 PM 55.9 °F - 21.0 °F 26% 30.25 in - Variable 3.5 mph - N/A   Unknown
3:54 PM 57.0 °F - 19.9 °F 24% 30.25 in - NNE 5.8 mph - N/A   Unknown
4:54 PM 55.9 °F - 19.0 °F 24% 30.25 in - Variable 3.5 mph - N/A   Unknown
5:54 PM 46.0 °F - 28.9 °F 51% 30.28 in - Calm Calm - N/A   Unknown
6:54 PM 41.0 °F - 30.9 °F 67% 30.30 in - Calm Calm - N/A   Unknown
7:54 PM 37.0 °F - 30.0 °F 76% 30.31 in - Calm Calm - N/A   Unknown
8:54 PM 34.0 °F - 30.0 °F 85% 30.32 in - Calm Calm - N/A   Unknown
9:54 PM 33.1 °F - 28.9 °F 85% 30.33 in - Calm Calm - N/A   Unknown
10:54 PM 30.9 °F - 27.0 °F 85% 30.33 in - Calm Calm - N/A   Unknown
11:54 PM 30.0 °F - 27.0 °F 88% 30.34 in - Calm Calm - N/A   Unknown